GW1851 Weather Reports


Display with metric or nautical units.
time (UTC)temp
F
wind
direction
speed
MPH
gust
MPH
rain 1hr
in
rain 24hr
in
rain mn
in
humidity
%
barometer
mb
20260906214227 83 210 1.0 1.0 0.00 0.00 0.00 65 1016.6
20260906213725 84 235 0.0 1.0 0.00 0.00 0.00 65 1016.7
20260906213220 84 227 1.0 1.0 0.00 0.00 0.00 64 1016.7
20260906212716 84 217 1.0 1.0 0.00 0.00 0.00 63 1016.6
20260906212213 84 332 5.0 6.0 0.00 0.00 0.00 64 1016.9
20260906211707 84 2 2.0 2.0 0.00 0.00 0.00 62 1016.9
20260906211203 85 229 1.0 1.0 0.00 0.00 0.00 64 1017.2
20260906210658 85 24 2.0 2.0 0.00 0.00 0.00 63 1017.1
20260906210157 86 209 1.0 2.0 0.00 0.00 0.00 65 1017.4
20260906205653 86 263 1.0 1.0 0.00 0.00 0.00 62 1017.5
20260906205149 86 249 1.0 1.0 0.00 0.00 0.00 61 1017.5
20260906204649 86 164 0.0 0.0 0.00 0.00 0.00 62 1017.4
20260906204143 86 209 1.0 1.0 0.00 0.00 0.00 63 1017.5
20260906203643 85 192 2.0 2.0 0.00 0.00 0.00 64 1017.4
20260906203138 85 214 0.0 0.0 0.00 0.00 0.00 64 1017.2
20260906202635 84 224 1.0 1.0 0.00 0.00 0.00 65 1017.7
20260906202134 85 255 2.0 2.0 0.00 0.00 0.00 61 1017.1
20260906201629 86 227 1.0 2.0 0.00 0.00 0.00 61 1017.5
20260906201128 86 227 2.0 2.0 0.00 0.00 0.00 61 1017.6
20260906200625 87 265 1.0 1.0 0.00 0.00 0.00 61 1017.5
20260906200120 87 265 1.0 2.0 0.00 0.00 0.00 61 1017.6
20260906195615 87 160 1.0 2.0 0.00 0.00 0.00 61 1017.4
20260906195112 87 98 1.0 1.0 0.00 0.00 0.00 61 1017.5
20260906194607 86 210 3.0 3.0 0.00 0.00 0.00 58 1017.4
20260906194103 86 198 1.0 2.0 0.00 0.00 0.00 61 1017.5
20260906193557 85 217 1.0 1.0 0.00 0.00 0.00 61 1017.3
20260906193052 85 214 1.0 1.0 0.00 0.00 0.00 63 1017.6
20260906192548 85 281 4.0 5.0 0.00 0.00 0.00 63 1017.6
20260906192047 86 197 0.0 0.0 0.00 0.00 0.00 61 1017.5
20260906191542 86 177 2.0 3.0 0.00 0.00 0.00 60 1017.6
20260906191041 86 224 3.0 3.0 0.00 0.00 0.00 61 1017.7
20260906190540 86 112 1.0 3.0 0.00 0.00 0.00 62 1017.8
20260906190036 85 17 3.0 3.0 0.00 0.00 0.00 61 1017.9
20260906185535 86 221 1.0 2.0 0.00 0.00 0.00 61 1017.6
20260906185034 85 211 2.0 2.0 0.00 0.00 0.00 64 1017.7
20260906184529 85 73 3.0 5.0 0.00 0.00 0.00 62 1017.9
20260906184024 85 118 2.0 2.0 0.00 0.00 0.00 62 1017.8
20260906183521 86 232 3.0 5.0 0.00 0.00 0.00 61 1017.9
20260906183016 85 208 0.0 1.0 0.00 0.00 0.00 63 1017.7
20260906182511 85 2 2.0 3.0 0.00 0.00 0.00 62 1017.8
20260906182007 86 223 1.0 1.0 0.00 0.00 0.00 63 1017.6
20260906181502 85 218 1.0 1.0 0.00 0.00 0.00 66 1018.0
20260906180958 85 214 3.0 5.0 0.00 0.00 0.00 62 1018.0
20260906180452 86 230 2.0 2.0 0.00 0.00 0.00 65 1018.0
20260906175951 85 214 0.0 1.0 0.00 0.00 0.00 65 1018.1
20260906175446 85 167 0.0 1.0 0.00 0.00 0.00 67 1018.3
20260906174944 84 204 1.0 1.0 0.00 0.00 0.00 67 1018.3
20260906174443 84 219 1.0 1.0 0.00 0.00 0.00 65 1018.4
20260906173939 84 180 0.0 1.0 0.00 0.00 0.00 66 1018.6
20260906173433 84 233 2.0 3.0 0.00 0.00 0.00 66 1018.4
20260906172933 84 215 0.0 0.0 0.00 0.00 0.00 66 1018.8
20260906172424 84 209 0.0 0.0 0.00 0.00 0.00 68 1018.6
20260906171919 84 225 2.0 3.0 0.00 0.00 0.00 66 1018.9
20260906171413 84 195 0.0 0.0 0.00 0.00 0.00 69 1018.9
20260906170909 83 215 2.0 2.0 0.00 0.00 0.00 67 1019.0
20260906170405 83 158 1.0 2.0 0.00 0.00 0.00 70 1019.0
20260906165901 84 200 1.0 1.0 0.00 0.00 0.00 68 1018.9
20260906165401 83 196 0.0 1.0 0.00 0.00 0.00 68 1019.2
20260906164855 84 202 1.0 2.0 0.00 0.00 0.00 69 1019.2
20260906164354 83 215 1.0 1.0 0.00 0.00 0.00 71 1019.0
20260906163851 83 266 1.0 2.0 0.00 0.00 0.00 72 1019.3
20260906163347 83 236 1.0 2.0 0.00 0.00 0.00 70 1019.2
20260906162845 82 211 3.0 3.0 0.00 0.00 0.00 71 1019.2
20260906162343 82 219 2.0 3.0 0.00 0.00 0.00 73 1019.4
20260906161839 84 47 3.0 6.0 0.00 0.00 0.00 71 1018.9
20260906161338 83 186 0.0 0.0 0.00 0.00 0.00 74 1019.1
20260906160837 83 214 1.0 2.0 0.00 0.00 0.00 72 1018.9
20260906160331 83 165 1.0 1.0 0.00 0.00 0.00 74 1019.0
20260906155829 82 216 0.0 1.0 0.00 0.00 0.00 76 1019.1
20260906155323 82 210 1.0 1.0 0.00 0.00 0.00 76 1019.0
20260906154820 80 192 1.0 1.0 0.00 0.00 0.00 78 1019.1
20260906154314 79 219 1.0 1.0 0.00 0.00 0.00 82 1019.1
20260906153812 79 214 0.0 0.0 0.00 0.00 0.00 83 1018.9
20260906153307 78 191 0.0 1.0 0.00 0.00 0.00 83 1018.8
20260906152802 79 214 0.0 1.0 0.00 0.00 0.00 83 1018.8
20260906152257 78 221 1.0 1.0 0.00 0.00 0.00 84 1018.9
20260906151756 77 214 0.0 1.0 0.00 0.00 0.00 85 1018.8
20260906151252 77 321 1.0 2.0 0.00 0.00 0.00 86 1018.9
20260906150747 76 234 0.0 1.0 0.00 0.00 0.00 88 1018.7
20260906150243 76 208 0.0 0.0 0.00 0.00 0.00 88 1018.5
20260906145742 76 231 1.0 1.0 0.00 0.00 0.00 89 1018.8
20260906145240 75 217 0.0 0.0 0.00 0.00 0.00 90 1018.5
20260906144736 75 192 1.0 1.0 0.00 0.00 0.00 91 1018.7
20260906144230 75 231 1.0 1.0 0.00 0.00 0.00 91 1018.6
20260906143730 75 209 0.0 0.0 0.00 0.00 0.00 91 1018.6
20260906143227 75 208 0.0 1.0 0.00 0.00 0.00 91 1018.4
20260906142726 75 226 0.0 1.0 0.00 0.00 0.00 91 1018.5
20260906142222 75 185 2.0 2.0 0.00 0.00 0.00 91 1018.7
20260906141721 75 217 1.0 2.0 0.00 0.00 0.00 91 1018.4
20260906141216 75 217 1.0 1.0 0.00 0.00 0.00 91 1018.5
20260906140715 75 227 1.0 1.0 0.00 0.00 0.00 91 1018.5
20260906140210 74 210 0.0 0.0 0.00 0.00 0.00 92 1018.6
20260906135707 74 222 1.0 1.0 0.00 0.00 0.00 92 1018.6
20260906135203 74 105 1.0 1.0 0.00 0.00 0.00 93 1018.5
20260906134658 74 218 0.0 1.0 0.00 0.00 0.00 94 1018.5
20260906134153 74 218 0.0 0.0 0.00 0.00 0.00 94 1018.6
20260906133649 73 210 0.0 0.0 0.00 0.00 0.00 95 1018.6
20260906133144 73 213 0.0 0.0 0.00 0.00 0.00 95 1018.6
20260906132639 73 223 1.0 1.0 0.00 0.00 0.00 95 1018.6
20260906132135 73 209 0.0 0.0 0.00 0.00 0.00 95 1018.6
20260906131630 73 167 0.0 0.0 0.00 0.00 0.00 95 1018.8
20260906131125 73 216 1.0 1.0 0.00 0.00 0.00 95 1018.4
20260906130621 73 219 0.0 0.0 0.00 0.00 0.00 96 1018.3
20260906130115 73 210 0.0 0.0 0.00 0.00 0.00 96 1018.2
20260906125613 73 209 0.0 0.0 0.00 0.00 0.00 96 1018.6
20260906125106 72 209 0.0 1.0 0.00 0.00 0.00 96 1018.4
20260906124602 72 212 0.0 0.0 0.00 0.00 0.00 96 1018.1
20260906124057 72 221 0.0 0.0 0.00 0.00 0.00 96 1018.2
20260906123556 72 213 0.0 0.0 0.00 0.00 0.00 96 1018.1
20260906123051 72 218 0.0 0.0 0.00 0.00 0.00 96 1018.1
20260906122550 72 220 0.0 0.0 0.00 0.00 0.00 97 1018.0
20260906122046 72 221 0.0 0.0 0.00 0.00 0.00 97 1018.2
20260906121542 72 219 0.0 0.0 0.00 0.00 0.00 97 1017.9
20260906121039 72 216 0.0 0.0 0.00 0.00 0.00 97 1018.1
20260906120534 72 220 0.0 0.0 0.00 0.00 0.00 97 1018.2
20260906120031 72 228 0.0 0.0 0.00 0.00 0.00 97 1017.7
20260906115531 72 221 0.0 0.0 0.00 0.00 0.00 97 1017.7
20260906115026 72 222 0.0 0.0 0.00 0.00 0.00 97 1017.5
20260906114520 72 225 0.0 0.0 0.00 0.00 0.00 97 1017.4
20260906114016 72 225 0.0 0.0 0.00 0.00 0.00 97 1017.4
20260906113515 72 220 0.0 0.0 0.00 0.00 0.00 97 1017.2
20260906113010 72 218 0.0 0.0 0.00 0.00 0.00 97 1017.4
20260906112505 72 217 0.0 0.0 0.00 0.00 0.00 97 1017.1
20260906112001 71 219 0.0 0.0 0.00 0.00 0.00 97 1017.1
20260906111501 71 218 0.0 0.0 0.00 0.00 0.00 97 1017.1
20260906110956 71 217 0.0 0.0 0.00 0.00 0.00 97 1017.0
20260906110450 71 216 0.0 0.0 0.00 0.00 0.00 97 1016.9
20260906105949 71 229 0.0 0.0 0.00 0.00 0.00 97 1016.8
20260906105445 71 222 0.0 0.0 0.00 0.00 0.00 97 1016.9
20260906104941 71 220 0.0 0.0 0.00 0.00 0.00 97 1016.9
20260906104440 71 225 0.0 0.0 0.00 0.00 0.00 97 1016.8
20260906103939 71 231 0.0 0.0 0.00 0.00 0.00 97 1016.7
20260906103437 71 210 0.0 0.0 0.00 0.00 0.00 97 1016.8
20260906102932 71 218 0.0 0.0 0.00 0.00 0.00 97 1016.8
20260906102427 71 217 0.0 0.0 0.00 0.00 0.00 97 1016.6
20260906101922 71 223 0.0 0.0 0.00 0.00 0.00 97 1016.6
20260906101417 71 221 0.0 0.0 0.00 0.00 0.00 97 1016.6
20260906100912 71 214 0.0 0.0 0.00 0.00 0.00 97 1016.4
20260906100412 71 216 0.0 0.0 0.00 0.00 0.00 97 1016.5
20260906095907 71 209 0.0 0.0 0.00 0.00 0.00 97 1016.4
20260906095403 71 220 0.0 0.0 0.00 0.00 0.00 97 1016.5
20260906094902 71 226 0.0 0.0 0.00 0.00 0.00 97 1016.7
20260906094356 71 214 0.0 0.0 0.00 0.00 0.00 97 1016.6
20260906093853 71 215 0.0 0.0 0.00 0.00 0.00 97 1016.2
20260906093348 71 212 0.0 0.0 0.00 0.00 0.00 97 1016.4
20260906092843 71 231 0.0 0.0 0.00 0.00 0.00 97 1016.4
20260906092337 71 219 0.0 0.0 0.00 0.00 0.00 97 1016.0
20260906091833 71 212 0.0 0.0 0.00 0.00 0.00 97 1016.2
20260906091329 71 213 0.0 0.0 0.00 0.00 0.00 96 1016.2
20260906090826 71 208 0.0 0.0 0.00 0.00 0.00 96 1016.4
20260906090324 71 215 0.0 0.0 0.00 0.00 0.00 96 1016.3
20260906085825 71 217 0.0 0.0 0.00 0.00 0.00 96 1016.3
20260906085324 71 219 0.0 0.0 0.00 0.00 0.00 96 1016.5
20260906084818 71 218 0.0 0.0 0.00 0.00 0.00 95 1016.6
20260906084318 71 221 0.0 0.0 0.00 0.00 0.00 95 1016.8
20260906083807 71 215 0.0 0.0 0.00 0.00 0.00 95 1016.6
20260906083303 72 217 0.0 0.0 0.00 0.00 0.00 95 1016.5
20260906082757 72 203 0.0 0.0 0.00 0.00 0.00 95 1016.2
20260906082252 72 215 0.0 0.0 0.00 0.00 0.00 95 1016.4
20260906081748 72 192 0.0 0.0 0.00 0.00 0.00 95 1016.5
20260906081243 72 233 0.0 0.0 0.00 0.00 0.00 95 1016.5
20260906080739 72 243 0.0 0.0 0.00 0.00 0.00 95 1016.5
20260906080236 72 229 1.0 1.0 0.00 0.00 0.00 96 1016.7
20260906075729 72 218 0.0 0.0 0.00 0.00 0.00 96 1016.4
20260906075224 72 221 1.0 1.0 0.00 0.00 0.00 96 1016.6
20260906074719 72 216 0.0 0.0 0.00 0.00 0.00 96 1016.8
20260906074219 72 211 0.0 0.0 0.00 0.00 0.00 95 1016.9
20260906073713 73 240 0.0 1.0 0.00 0.00 0.00 95 1016.8
20260906073208 73 206 0.0 0.0 0.00 0.00 0.00 95 1016.7
20260906072704 73 219 0.0 1.0 0.00 0.00 0.00 95 1016.8
20260906072159 73 220 0.0 0.0 0.00 0.00 0.00 95 1016.7
20260906071655 73 218 0.0 0.0 0.00 0.00 0.00 95 1016.7
20260906071155 73 211 0.0 0.0 0.00 0.00 0.00 95 1016.6
20260906070652 73 210 0.0 0.0 0.00 0.00 0.00 95 1016.7
20260906070147 73 211 0.0 0.0 0.00 0.00 0.00 95 1016.6
20260906065647 73 211 0.0 0.0 0.00 0.00 0.00 95 1016.8
20260906065142 73 213 0.0 0.0 0.00 0.00 0.00 95 1017.0
20260906064638 73 182 0.0 1.0 0.00 0.00 0.00 95 1016.9
20260906064133 74 214 0.0 0.0 0.00 0.00 0.00 95 1017.0
20260906063628 74 209 0.0 0.0 0.00 0.00 0.00 95 1016.7
20260906063124 74 206 0.0 0.0 0.00 0.00 0.00 94 1016.8
20260906062620 74 215 0.0 0.0 0.00 0.00 0.00 94 1016.9
20260906062118 74 209 0.0 0.0 0.00 0.00 0.00 94 1016.7
20260906061615 74 218 0.0 1.0 0.00 0.00 0.00 94 1016.8
20260906061114 74 211 0.0 0.0 0.00 0.00 0.00 94 1016.7
20260906060611 74 192 0.0 0.0 0.00 0.00 0.00 94 1016.7
20260906060108 74 206 0.0 0.0 0.00 0.00 0.00 94 1017.0
20260906055603 74 211 1.0 1.0 0.00 0.00 0.00 94 1016.9
20260906055058 74 245 0.0 0.0 0.00 0.00 0.00 95 1016.9
20260906054558 74 211 0.0 0.0 0.00 0.00 0.00 95 1016.6
20260906054053 74 218 0.0 0.0 0.00 0.00 0.00 95 1016.5
20260906053550 74 216 0.0 0.0 0.00 0.00 0.00 95 1016.4
20260906053045 74 219 0.0 0.0 0.00 0.00 0.00 95 1016.4
20260906052541 74 218 0.0 1.0 0.00 0.00 0.00 95 1016.3
20260906052038 74 212 0.0 0.0 0.00 0.00 0.00 94 1016.1
20260906051533 75 190 0.0 1.0 0.00 0.00 0.00 95 1015.9
20260906051028 75 225 0.0 0.0 0.00 0.00 0.00 95 1016.0
20260906050524 75 224 0.0 0.0 0.00 0.00 0.00 94 1016.1
20260906050018 75 226 0.0 0.0 0.00 0.00 0.00 94 1016.0
20260906045516 75 210 0.0 0.0 0.00 0.00 0.00 94 1015.9
20260906045013 75 204 0.0 0.0 0.00 0.00 0.00 94 1016.2
20260906044508 75 219 0.0 0.0 0.00 0.00 0.00 94 1015.9
20260906044004 75 224 0.0 0.0 0.00 0.00 0.00 94 1016.0
20260906043459 75 224 0.0 0.0 0.00 0.00 0.00 94 1016.0
20260906042955 75 224 0.0 0.0 0.00 0.00 0.00 93 1015.9
20260906042454 75 224 0.0 0.0 0.00 0.00 0.00 93 1015.8
20260906041953 76 224 0.0 0.0 0.00 0.00 0.00 93 1015.9
20260906041450 76 224 0.0 0.0 0.00 0.00 0.00 93 1015.9
20260906040949 76 225 0.0 0.0 0.00 0.00 0.00 93 1015.8
20260906040444 76 212 0.0 0.0 0.00 0.00 0.00 92 1015.9
20260906035940 77 215 0.0 0.0 0.00 0.00 0.00 93 1015.6
20260906035435 77 221 0.0 0.0 0.00 0.00 0.00 92 1015.4
20260906034930 77 213 0.0 0.0 0.00 0.00 0.00 91 1015.6
20260906034425 77 207 0.0 0.0 0.00 0.00 0.00 91 1015.7
20260906033920 77 216 0.0 0.0 0.00 0.00 0.00 91 1015.5
20260906033415 77 207 0.0 0.0 0.00 0.00 0.00 91 1015.5
20260906032911 78 208 0.0 0.0 0.00 0.00 0.00 90 1015.7
20260906032407 78 212 0.0 0.0 0.00 0.00 0.00 90 1015.6
20260906031901 78 211 0.0 0.0 0.00 0.00 0.00 89 1015.3
20260906031356 78 213 0.0 0.0 0.00 0.00 0.00 89 1015.2
20260906030852 79 258 1.0 1.0 0.00 0.00 0.00 89 1015.4
20260906030346 79 212 0.0 0.0 0.00 0.00 0.00 89 1015.4
20260906025841 79 211 0.0 0.0 0.00 0.00 0.00 89 1015.4
20260906025335 79 180 1.0 1.0 0.00 0.00 0.00 89 1015.2
20260906024834 80 236 1.0 1.0 0.00 0.00 0.00 89 1015.2
20260906024333 80 211 0.0 1.0 0.00 0.00 0.00 89 1015.5
20260906023829 80 206 0.0 0.0 0.00 0.00 0.00 88 1015.2
20260906023324 80 233 0.0 0.0 0.00 0.00 0.00 88 1015.0
20260906022820 81 210 0.0 1.0 0.00 0.00 0.00 87 1014.8
20260906022315 81 218 1.0 2.0 0.00 0.00 0.00 87 1015.0
20260906021811 81 210 1.0 1.0 0.00 0.00 0.00 87 1014.6
20260906021309 81 226 1.0 1.0 0.00 0.00 0.00 87 1014.5
20260906020804 82 198 1.0 1.0 0.00 0.00 0.00 88 1014.3
20260906020304 82 204 1.0 1.0 0.00 0.00 0.00 88 1014.3
20260906015759 82 210 0.0 0.0 0.00 0.00 0.00 88 1014.4
20260906015257 82 150 1.0 1.0 0.00 0.00 0.00 89 1014.4
20260906014751 82 242 1.0 1.0 0.00 0.00 0.00 88 1014.2
20260906014247 82 233 1.0 1.0 0.00 0.00 0.00 89 1014.2
20260906013743 83 221 1.0 1.0 0.00 0.00 0.00 88 1014.1
20260906013243 83 198 2.0 2.0 0.00 0.00 0.00 88 1013.9
20260906012739 83 237 1.0 1.0 0.00 0.00 0.00 88 1014.0
20260906012234 83 241 2.0 3.0 0.00 0.00 0.00 87 1014.1
20260906011729 84 265 3.0 3.0 0.00 0.00 0.00 86 1013.9
20260906011229 84 221 1.0 2.0 0.00 0.00 0.00 86 1014.0
20260906010724 84 234 1.0 1.0 0.00 0.00 0.00 85 1013.6
20260906010220 84 221 0.0 1.0 0.00 0.00 0.00 85 1013.6
20260906005715 84 221 0.0 0.0 0.00 0.00 0.00 85 1013.8
20260906005215 85 220 0.0 0.0 0.00 0.00 0.00 85 1013.5
20260906004714 85 217 0.0 0.0 0.00 0.00 0.00 85 1013.4
20260906004209 85 223 0.0 0.0 0.00 0.00 0.00 85 1013.6
20260906003704 86 218 0.0 0.0 0.00 0.00 0.00 84 1013.5
20260906003159 86 219 0.0 0.0 0.00 0.00 0.00 84 1013.3
20260906002654 86 240 1.0 1.0 0.00 0.00 0.00 84 1013.4
20260906002149 86 222 0.0 0.0 0.00 0.00 0.00 84 1013.3
20260906001644 86 223 0.0 0.0 0.00 0.00 0.00 84 1013.4
20260906001144 87 221 0.0 0.0 0.00 0.00 0.00 84 1013.6
20260906000639 87 221 0.0 0.0 0.00 0.00 0.00 83 1013.7
20260906000135 87 221 0.0 0.0 0.00 0.00 0.00 81 1013.3
20260905235633 88 222 0.0 0.0 0.00 0.00 0.00 80 1013.4
20260905235129 88 222 0.0 0.0 0.00 0.00 0.00 79 1013.5
20260905234624 88 216 0.0 0.0 0.00 0.00 0.00 79 1013.4
20260905234120 88 221 0.0 0.0 0.00 0.00 0.00 79 1013.3
20260905233614 89 232 0.0 0.0 0.00 0.00 0.00 79 1013.4
20260905233108 89 216 0.0 0.0 0.00 0.00 0.00 78 1013.4
20260905232604 89 217 0.0 0.0 0.00 0.00 0.00 77 1013.5
20260905232059 89 219 1.0 1.0 0.00 0.00 0.00 77 1013.2
20260905231554 90 228 0.0 1.0 0.00 0.00 0.00 77 1013.3
20260905231051 90 218 0.0 0.0 0.00 0.00 0.00 78 1013.4
20260905230550 90 227 0.0 0.0 0.00 0.00 0.00 77 1013.1
20260905230049 90 220 0.0 0.0 0.00 0.00 0.00 77 1013.2
20260905225549 90 235 1.0 1.0 0.00 0.00 0.00 76 1013.2
20260905225044 90 228 1.0 1.0 0.00 0.00 0.00 76 1013.2
20260905224544 90 206 1.0 1.0 0.00 0.00 0.00 77 1013.3
20260905224043 89 226 0.0 0.0 0.00 0.00 0.00 79 1013.3
20260905223541 89 221 0.0 0.0 0.00 0.00 0.00 79 1013.1
20260905223037 89 226 0.0 1.0 0.00 0.00 0.00 78 1013.3
20260905222537 89 218 0.0 1.0 0.00 0.00 0.00 79 1013.3
20260905222032 89 220 0.0 0.0 0.00 0.00 0.00 78 1013.0
20260905221528 90 225 0.0 0.0 0.00 0.00 0.00 78 1013.2
20260905221024 90 220 0.0 1.0 0.00 0.00 0.00 78 1013.4
20260905220520 90 213 1.0 1.0 0.00 0.00 0.00 77 1013.2
20260905220016 90 217 0.0 1.0 0.00 0.00 0.00 76 1013.2
20260905215510 91 227 0.0 0.0 0.00 0.00 0.00 76 1013.3
20260905215006 91 311 3.0 3.0 0.00 0.00 0.00 74 1013.4